Total_Precipitation_Accumulation
0.08 0.08 0.10 0.14 0.11 0.08 0.03 0.01 0.01 0.01 0.01 0.01 0.01 0.01 0.01 0.03 0.06 0.13 0.16 0.19 0.20 0.18 0.23 0.38 0.61 0.69 0.78 0.86 0.90 0.84 0.77 0.70 0.69 0.66 0.62 0.62 0.64 0.69 0.77 0.82 0.88 0.93 1.03 1.01 0.94 1.04 1.07 1.04 0.96
0.08 0.11 0.15 0.16 0.10 0.06 0.03 0.01 0.02 0.02 0.01 0.01 0.01 0.02 0.02 0.03 0.04 0.09 0.16 0.18 0.20 0.20 0.23 0.32 0.56 0.70 0.78 0.81 0.78 0.81 0.79 0.74 0.67 0.60 0.60 0.64 0.68 0.71 0.78 0.85 0.90 0.91 1.04 1.02 0.99 1.03 0.97 0.93 0.86
0.14 0.17 0.19 0.18 0.09 0.03 0.02 0.02 0.02 0.02 0.03 0.02 0.01 0.03 0.04 0.04 0.05 0.09 0.15 0.18 0.22 0.24 0.31 0.45 0.60 0.75 0.81 0.81 0.77 0.78 0.82 0.77 0.71 0.64 0.64 0.66 0.67 0.71 0.74 0.75 0.81 0.85 0.94 0.93 0.90 0.94 0.88 0.82 0.80
0.22 0.28 0.22 0.15 0.06 0.02 0.02 0.03 0.02 0.03 0.03 0.02 0.03 0.04 0.05 0.05 0.05 0.08 0.14 0.19 0.23 0.24 0.31 0.46 0.61 0.75 0.81 0.82 0.84 0.86 0.86 0.84 0.77 0.74 0.70 0.69 0.69 0.68 0.68 0.66 0.64 0.69 0.73 0.76 0.78 0.82 0.80 0.76 0.70
0.27 0.29 0.22 0.12 0.05 0.03 0.02 0.03 0.03 0.03 0.04 0.04 0.04 0.06 0.09 0.08 0.07 0.10 0.15 0.20 0.27 0.31 0.34 0.46 0.65 0.83 0.86 0.87 0.86 0.89 0.91 0.94 0.86 0.84 0.83 0.78 0.72 0.71 0.66 0.59 0.58 0.60 0.59 0.61 0.69 0.77 0.80 0.77 0.69
0.33 0.29 0.19 0.10 0.05 0.03 0.03 0.04 0.05 0.04 0.04 0.04 0.05 0.08 0.13 0.12 0.12 0.16 0.19 0.23 0.30 0.36 0.43 0.55 0.77 0.94 0.94 0.98 0.93 0.96 0.98 1.03 0.95 0.94 0.96 0.90 0.86 0.80 0.73 0.63 0.59 0.59 0.56 0.56 0.60 0.70 0.84 0.82 0.70
0.33 0.28 0.14 0.08 0.07 0.05 0.04 0.05 0.06 0.07 0.06 0.05 0.05 0.09 0.16 0.16 0.16 0.20 0.25 0.30 0.37 0.43 0.51 0.64 0.85 1.02 1.03 0.99 1.05 1.08 1.06 1.11 1.06 1.05 1.03 0.91 0.84 0.80 0.80 0.76 0.70 0.67 0.64 0.61 0.60 0.64 0.80 0.82 0.72
0.34 0.36 0.18 0.08 0.07 0.07 0.05 0.07 0.06 0.10 0.09 0.06 0.06 0.09 0.14 0.16 0.19 0.27 0.37 0.43 0.47 0.52 0.65 0.82 0.97 1.21 1.24 1.02 0.99 1.08 1.09 1.15 1.12 1.07 0.95 0.78 0.76 0.79 0.76 0.71 0.69 0.69 0.68 0.66 0.60 0.59 0.68 0.72 0.69
0.45 0.47 0.24 0.11 0.08 0.09 0.06 0.07 0.08 0.10 0.11 0.09 0.09 0.08 0.09 0.14 0.25 0.36 0.46 0.52 0.57 0.63 0.81 1.01 1.18 1.35 1.36 1.16 0.99 1.10 1.14 1.18 1.12 1.00 0.87 0.76 0.75 0.73 0.67 0.56 0.58 0.66 0.70 0.68 0.66 0.64 0.65 0.65 0.58
0.59 0.45 0.24 0.13 0.09 0.09 0.08 0.10 0.11 0.12 0.13 0.13 0.12 0.11 0.14 0.20 0.33 0.42 0.44 0.50 0.57 0.69 0.93 1.08 1.30 1.42 1.39 1.25 1.15 1.20 1.18 1.19 1.08 0.88 0.86 0.87 0.87 0.84 0.73 0.63 0.58 0.64 0.68 0.72 0.77 0.75 0.69 0.61 0.54
0.54 0.36 0.19 0.12 0.11 0.12 0.11 0.13 0.15 0.16 0.18 0.15 0.13 0.15 0.21 0.31 0.40 0.45 0.49 0.54 0.61 0.74 0.95 1.16 1.42 1.65 1.54 1.37 1.27 1.27 1.25 1.21 1.16 1.04 0.94 1.00 1.04 0.98 0.89 0.79 0.75 0.69 0.65 0.69 0.73 0.76 0.65 0.62 0.71
0.48 0.28 0.17 0.14 0.14 0.18 0.17 0.15 0.16 0.20 0.20 0.17 0.17 0.21 0.31 0.34 0.38 0.42 0.53 0.65 0.76 0.84 0.98 1.23 1.46 1.72 1.75 1.60 1.46 1.33 1.21 1.18 1.15 1.17 1.09 1.07 1.02 0.90 0.83 0.74 0.69 0.69 0.66 0.67 0.68 0.68 0.66 0.64 0.67
0.42 0.31 0.20 0.16 0.16 0.19 0.21 0.20 0.18 0.18 0.17 0.19 0.26 0.33 0.35 0.35 0.38 0.42 0.52 0.62 0.72 0.82 0.94 1.21 1.38 1.56 1.74 1.82 1.71 1.56 1.36 1.20 1.15 1.19 1.21 1.15 1.03 0.94 0.84 0.75 0.72 0.67 0.62 0.62 0.63 0.60 0.60 0.63 0.65
0.38 0.31 0.27 0.22 0.21 0.23 0.23 0.21 0.21 0.19 0.18 0.24 0.29 0.33 0.39 0.38 0.37 0.43 0.51 0.56 0.61 0.69 0.81 1.03 1.29 1.44 1.65 1.69 1.72 1.69 1.59 1.46 1.36 1.27 1.22 1.30 1.20 1.06 0.95 0.84 0.78 0.75 0.66 0.60 0.61 0.60 0.62 0.61 0.61
0.39 0.40 0.35 0.27 0.25 0.27 0.30 0.28 0.22 0.19 0.21 0.25 0.29 0.35 0.41 0.43 0.43 0.49 0.53 0.52 0.56 0.64 0.76 0.92 1.11 1.27 1.41 1.48 1.59 1.63 1.57 1.55 1.44 1.32 1.27 1.32 1.38 1.23 1.14 1.06 0.95 0.83 0.78 0.76 0.79 0.76 0.77 0.75 0.73
0.53 0.58 0.51 0.30 0.24 0.29 0.44 0.36 0.22 0.22 0.22 0.24 0.28 0.35 0.41 0.41 0.45 0.54 0.60 0.56 0.58 0.64 0.71 0.84 0.99 1.18 1.34 1.46 1.53 1.59 1.60 1.60 1.49 1.41 1.38 1.34 1.39 1.43 1.36 1.26 1.15 0.98 0.92 0.93 0.91 0.93 0.94 0.83 0.83
0.78 0.64 0.46 0.32 0.24 0.30 0.44 0.37 0.23 0.23 0.24 0.23 0.26 0.32 0.36 0.39 0.43 0.51 0.56 0.55 0.56 0.59 0.66 0.78 0.87 0.96 1.17 1.51 1.69 1.66 1.70 1.71 1.59 1.54 1.54 1.45 1.40 1.38 1.39 1.36 1.29 1.16 1.05 1.05 1.03 0.93 0.93 0.93 0.95
0.65 0.47 0.36 0.31 0.27 0.32 0.38 0.30 0.22 0.23 0.24 0.23 0.25 0.31 0.35 0.36 0.39 0.44 0.51 0.54 0.60 0.64 0.67 0.75 0.90 1.05 1.18 1.43 1.78 1.91 1.78 1.79 1.80 1.62 1.56 1.54 1.55 1.50 1.45 1.41 1.35 1.31 1.26 1.20 1.16 1.09 1.04 1.01 1.03
0.49 0.45 0.37 0.27 0.27 0.41 0.37 0.28 0.25 0.23 0.25 0.26 0.25 0.27 0.33 0.35 0.38 0.46 0.49 0.55 0.62 0.70 0.72 0.72 0.81 1.02 1.20 1.34 1.51 1.72 1.71 1.72 1.83 1.81 1.67 1.63 1.54 1.51 1.49 1.41 1.40 1.35 1.29 1.24 1.23 1.21 1.18 1.11 1.11
0.61 0.58 0.43 0.31 0.27 0.43 0.43 0.33 0.27 0.24 0.26 0.27 0.26 0.25 0.28 0.34 0.39 0.46 0.51 0.56 0.59 0.66 0.75 0.76 0.74 0.88 1.05 1.16 1.32 1.60 1.75 1.85 2.00 2.04 1.93 1.88 1.67 1.52 1.47 1.44 1.42 1.38 1.36 1.31 1.24 1.24 1.26 1.24 1.20
0.69 0.59 0.45 0.44 0.40 0.46 0.50 0.43 0.30 0.27 0.27 0.27 0.26 0.25 0.27 0.34 0.39 0.45 0.51 0.56 0.61 0.63 0.67 0.74 0.76 0.80 0.96 1.19 1.38 1.57 1.87 1.95 2.04 2.08 1.98 2.01 1.94 1.69 1.55 1.47 1.46 1.41 1.38 1.34 1.26 1.21 1.25 1.35 1.35
0.65 0.45 0.43 0.53 0.73 0.73 0.60 0.65 0.35 0.29 0.28 0.28 0.27 0.25 0.30 0.35 0.40 0.47 0.53 0.56 0.65 0.65 0.65 0.68 0.74 0.80 0.93 1.13 1.33 1.40 1.53 1.64 1.59 1.69 1.78 1.89 2.03 1.92 1.66 1.52 1.46 1.42 1.41 1.37 1.35 1.27 1.26 1.34 1.34
0.52 0.39 0.50 0.63 0.87 0.86 0.61 0.68 0.41 0.30 0.33 0.31 0.29 0.27 0.31 0.35 0.44 0.51 0.54 0.55 0.65 0.68 0.67 0.69 0.76 0.77 0.86 1.04 1.20 1.32 1.37 1.45 1.55 1.57 1.61 1.70 1.82 1.89 1.80 1.62 1.58 1.52 1.46 1.41 1.38 1.34 1.29 1.29 1.28
0.59 0.67 0.83 0.94 1.28 1.30 0.53 0.51 0.45 0.38 0.37 0.35 0.33 0.31 0.31 0.36 0.49 0.54 0.56 0.61 0.70 0.73 0.73 0.74 0.77 0.81 0.80 0.90 1.07 1.20 1.25 1.33 1.47 1.49 1.44 1.47 1.61 1.73 1.77 1.70 1.58 1.54 1.49 1.46 1.41 1.37 1.29 1.27 1.25
1.01 1.47 2.08 2.18 1.98 1.10 0.33 0.37 0.45 0.41 0.40 0.44 0.42 0.38 0.33 0.39 0.48 0.50 0.54 0.64 0.72 0.77 0.74 0.72 0.75 0.84 0.86 0.92 0.97 1.02 1.11 1.22 1.32 1.41 1.43 1.44 1.47 1.56 1.65 1.69 1.62 1.54 1.54 1.51 1.50 1.48 1.37 1.30 1.28
1.01 1.26 1.61 1.59 1.10 0.56 0.30 0.34 0.37 0.34 0.33 0.38 0.39 0.38 0.36 0.38 0.43 0.47 0.47 0.53 0.64 0.76 0.81 0.76 0.71 0.74 0.84 0.94 0.95 0.97 1.06 1.17 1.17 1.21 1.31 1.38 1.39 1.45 1.58 1.62 1.60 1.57 1.62 1.68 1.68 1.70 1.64 1.53 1.42
1.02 1.00 0.84 1.13 0.86 0.62 0.42 0.33 0.28 0.21 0.23 0.34 0.39 0.39 0.41 0.38 0.41 0.43 0.42 0.46 0.50 0.59 0.68 0.78 0.76 0.74 0.75 0.87 0.98 0.97 1.03 1.13 1.13 1.11 1.14 1.18 1.19 1.23 1.36 1.51 1.58 1.62 1.64 1.69 1.79 1.81 1.75 1.76 1.71
0.82 0.97 1.14 1.57 1.43 0.85 0.45 0.36 0.38 0.28 0.26 0.33 0.43 0.44 0.49 0.47 0.43 0.40 0.38 0.42 0.44 0.49 0.53 0.67 0.79 0.80 0.81 0.82 0.93 0.98 1.00 1.07 1.15 1.15 1.12 1.16 1.21 1.23 1.24 1.30 1.39 1.48 1.57 1.62 1.69 1.74 1.75 1.80 1.79
0.75 1.06 1.41 1.50 1.24 0.97 0.60 0.44 0.43 0.36 0.32 0.36 0.46 0.52 0.55 0.56 0.54 0.48 0.40 0.41 0.43 0.51 0.57 0.59 0.71 0.81 0.85 0.82 0.84 0.93 1.01 1.04 1.14 1.22 1.22 1.19 1.26 1.32 1.31 1.31 1.30 1.30 1.35 1.50 1.64 1.70 1.75 1.78 1.73
0.66 0.82 1.11 1.52 1.19 0.81 0.69 0.48 0.34 0.31 0.32 0.36 0.43 0.52 0.55 0.54 0.53 0.50 0.43 0.43 0.47 0.54 0.59 0.60 0.69 0.75 0.83 0.86 0.86 0.89 1.00 1.05 1.10 1.18 1.26 1.24 1.26 1.31 1.31 1.32 1.30 1.22 1.22 1.31 1.43 1.51 1.59 1.67 1.64